SV3BEF-4 Korifi GR current weather conditions

sailwx.info

Wind from 222

Air temperature 26.1° C

Last reported at 2020-Jul-15 07:05 UTC.
Time now 2020-Jul-15 08:14 UTC

Location: N 37°40' E 021°26'.
View on Google Maps.

See reports from other nearby stations

  
Tides and Currents Weather Stations Pressure Air Temp Water Temp Dewpoint Dewpoint Depression Visibility Wind Speed Wind Dir Waves Ship Positions
date/time (UTC)wind fromknots sea level pressurealtimeterstation pressurevisibilityair tempwater tempwave heightnotes
2020-Jul-15 07:05 222 26.1
2020-Jul-15 06:55 222 26.1
2020-Jul-15 06:50 222 25.6
2020-Jul-15 06:45 222 25.6
2020-Jul-15 06:40 222 25.6
2020-Jul-15 06:34 222 25.6
2020-Jul-15 06:29 222 25.6
2020-Jul-15 06:24 222 25.0
2020-Jul-15 06:19 222 25.0
2020-Jul-15 06:14 162 25.6
2020-Jul-15 06:09 162 25.6
2020-Jul-15 06:04 060 25.0
2020-Jul-15 05:59 060 25.0
2020-Jul-15 05:54 060 0 25.0
2020-Jul-15 05:49 122 25.0
2020-Jul-15 05:44 082 24.4
2020-Jul-15 05:39 082 24.4
2020-Jul-15 05:34 082 24.4
2020-Jul-15 05:29 058 24.4
2020-Jul-15 05:24 058 24.4
2020-Jul-15 05:19 058 23.9
2020-Jul-15 05:14 058 24.4
2020-Jul-15 05:09 063 24.4
2020-Jul-15 05:04 063 23.9
2020-Jul-15 04:59 058 23.9
2020-Jul-15 04:54 097 23.9
2020-Jul-15 04:49 097 23.3
2020-Jul-15 04:44 082 23.9
2020-Jul-15 04:39 072 23.9
2020-Jul-15 04:34 072 23.9
2020-Jul-15 04:29 072 23.3
2020-Jul-15 04:24 072 23.9
2020-Jul-15 04:19 087 23.3
2020-Jul-15 04:14 087 23.3
2020-Jul-15 04:09 087 23.9
2020-Jul-15 04:04 087 23.3
2020-Jul-15 03:58 087 23.3
2020-Jul-15 03:53 087 23.3
2020-Jul-15 03:48 162 23.3
2020-Jul-15 03:43 162 23.3
2020-Jul-15 03:38 162 23.3
2020-Jul-15 03:33 162 23.3
2020-Jul-15 03:28 162 23.3
2020-Jul-15 03:23 162 23.3
2020-Jul-15 03:18 162 23.3
2020-Jul-15 03:13 162 23.3
2020-Jul-15 03:08 162 23.3
2020-Jul-15 03:03 162 23.3
2020-Jul-15 02:58 162 23.3
2020-Jul-15 02:53 162 23.3
2020-Jul-15 02:48 162 23.3
2020-Jul-15 02:43 162 23.3
2020-Jul-15 02:38 162 23.3
2020-Jul-15 02:33 162 23.3
2020-Jul-15 02:28 162 23.3
2020-Jul-15 02:23 162 23.9
2020-Jul-15 02:18 162 23.9
2020-Jul-15 02:13 162 23.9
2020-Jul-15 02:08 162 23.9
2020-Jul-15 02:03 162 23.9
2020-Jul-15 01:58 162 23.3
2020-Jul-15 01:53 162 23.3
2020-Jul-15 01:48 162 23.9
2020-Jul-15 01:43 162 23.9
2020-Jul-15 01:38 162 23.9
2020-Jul-15 01:33 162 24.4
2020-Jul-15 01:27 162 23.9
2020-Jul-15 01:22 162 23.9
2020-Jul-15 01:17 162 23.9
2020-Jul-15 01:12 162 23.9
2020-Jul-15 01:07 162 24.4
2020-Jul-15 01:02 162 24.4
2020-Jul-15 00:57 162 24.4
2020-Jul-15 00:52 162 24.4
2020-Jul-15 00:47 162 24.4
2020-Jul-15 00:42 162 24.4
2020-Jul-15 00:37 162 24.4
2020-Jul-15 00:32 162 24.4
2020-Jul-15 00:27 162 24.4
2020-Jul-15 00:22 162 24.4
2020-Jul-15 00:17 162 24.4
2020-Jul-15 00:12 162 24.4
2020-Jul-15 00:07 162 24.4
2020-Jul-15 00:02 162 24.4
2020-Jul-14 23:57 162 24.4
2020-Jul-14 23:52 162 24.4
2020-Jul-14 23:47 162 24.4
2020-Jul-14 23:42 162 24.4
2020-Jul-14 23:37 162 25.0
2020-Jul-14 23:32 162 25.0
2020-Jul-14 23:27 162 24.4
2020-Jul-14 23:22 162 24.4
2020-Jul-14 23:17 162 24.4
2020-Jul-14 23:12 162 25.0
2020-Jul-14 23:07 162 25.0
2020-Jul-14 23:02 162 24.4
2020-Jul-14 22:57 162 25.0
2020-Jul-14 22:51 162 25.0
2020-Jul-14 22:46 162 24.4
2020-Jul-14 22:41 162 24.4
2020-Jul-14 22:36 162 25.0
2020-Jul-14 22:31 162 25.0
2020-Jul-14 22:26 162 25.0
2020-Jul-14 22:21 162 24.4
2020-Jul-14 22:16 162 25.0
2020-Jul-14 22:11 162 25.0
2020-Jul-14 22:06 162 25.0
2020-Jul-14 22:01 162 25.0
2020-Jul-14 21:56 162 25.0
2020-Jul-14 21:51 162 25.0
2020-Jul-14 21:46 162 25.0
2020-Jul-14 21:41 162 25.0
2020-Jul-14 21:36 162 25.0
2020-Jul-14 21:31 162 25.0
2020-Jul-14 21:26 162 25.0
2020-Jul-14 21:21 162 25.0
2020-Jul-14 21:16 162 25.0
2020-Jul-14 21:11 162 25.0
2020-Jul-14 21:06 162 25.0
2020-Jul-14 21:01 162 25.0
2020-Jul-14 20:56 162 25.0
2020-Jul-14 20:51 162 25.6
2020-Jul-14 20:46 162 25.6
2020-Jul-14 20:41 162 25.6
2020-Jul-14 20:36 162 25.6
2020-Jul-14 20:31 162 25.6
2020-Jul-14 20:26 162 25.0
2020-Jul-14 20:20 162 25.0
2020-Jul-14 20:15 162 25.0
2020-Jul-14 20:10 162 25.0
2020-Jul-14 20:05 162 25.0
2020-Jul-14 20:00 162 25.0
2020-Jul-14 19:55 162 25.6
2020-Jul-14 19:50 162 25.6
2020-Jul-14 19:45 162 25.6
2020-Jul-14 19:40 162 25.6
2020-Jul-14 19:35 162 25.6
2020-Jul-14 19:30 162 25.0
2020-Jul-14 19:25 162 25.6
2020-Jul-14 19:20 162 25.6
2020-Jul-14 19:15 162 25.6
2020-Jul-14 19:10 162 25.6
2020-Jul-14 19:05 149 25.6
2020-Jul-14 19:00 156 26.1
2020-Jul-14 18:55 156 25.6
2020-Jul-14 18:50 156 25.6
2020-Jul-14 18:45 127 25.6
2020-Jul-14 18:40 127 25.6
2020-Jul-14 18:35 163 25.6
2020-Jul-14 18:30 240 25.6
2020-Jul-14 18:25 240 25.6
2020-Jul-14 18:20 240 25.6
2020-Jul-14 18:15 193 25.6
2020-Jul-14 18:10 193 0 25.6
2020-Jul-14 18:05 215 0 gusting 3 25.6
2020-Jul-14 18:00 205 26.1
2020-Jul-14 17:55 263 26.1
2020-Jul-14 17:50 225 25.6
2020-Jul-14 17:44 240 26.1
2020-Jul-14 17:39 165 2 26.1
2020-Jul-14 17:34 239 0 26.1
2020-Jul-14 17:29 110 26.7
2020-Jul-14 17:24 231 26.1
2020-Jul-14 17:19 231 2 26.7
2020-Jul-14 17:04
2020-Jul-14 16:04
2020-Jul-14 15:03
2020-Jul-14 14:13
2020-Jul-14 14:08
2020-Jul-14 14:03
2020-Jul-14 13:28
2020-Jul-14 13:23
2020-Jul-14 13:18
2020-Jul-14 13:13
2020-Jul-14 13:08
2020-Jul-14 13:03
2020-Jul-14 12:43 229 28.9
2020-Jul-14 12:37 231 28.9
2020-Jul-14 12:32 225 29.4
2020-Jul-14 12:27 165 28.9
2020-Jul-14 12:22 225 28.9
2020-Jul-14 12:17 191 29.4
2020-Jul-14 12:12 252 29.4
2020-Jul-14 12:07 240 28.9
2020-Jul-14 12:02 255 28.9
2020-Jul-14 11:52
2020-Jul-14 11:47
2020-Jul-14 11:42
2020-Jul-14 11:38
2020-Jul-14 11:32
2020-Jul-14 11:27
2020-Jul-14 11:22 270 29.4
2020-Jul-14 11:17 195 29.4
2020-Jul-14 11:12
2020-Jul-14 11:07
2020-Jul-14 11:02
2020-Jul-14 10:57
2020-Jul-14 10:52
2020-Jul-14 10:47
2020-Jul-14 10:42
2020-Jul-14 10:37
2020-Jul-14 10:32
2020-Jul-14 10:27
2020-Jul-14 10:22
2020-Jul-14 10:17
2020-Jul-14 10:12
2020-Jul-14 10:06
2020-Jul-14 10:01
2020-Jul-14 09:56
2020-Jul-14 09:51
2020-Jul-14 09:46
2020-Jul-14 09:41
2020-Jul-14 09:36
2020-Jul-14 09:31
2020-Jul-14 09:26
2020-Jul-14 09:21
2020-Jul-14 09:16 28.3
2020-Jul-14 09:11 28.3
2020-Jul-14 09:06 28.3
2020-Jul-14 09:01 27.8
2020-Jul-14 08:51 231 3 27.8
2020-Jul-14 08:46 27.2
2020-Jul-14 08:41 27.2
2020-Jul-14 08:36 27.2
2020-Jul-14 08:31 27.2
2020-Jul-14 08:26 27.2
2020-Jul-14 08:21 27.2
2020-Jul-14 08:16 218 1 27.2
2020-Jul-14 08:11 228 0 27.2
2020-Jul-14 08:06 215 3 27.2
2020-Jul-14 08:01 191 4 27.2
2020-Jul-14 07:56 201 2 27.8
2020-Jul-14 07:51 210 4 27.8
2020-Jul-14 07:46 217 27.8
2020-Jul-14 07:41 158 0 27.8
2020-Jul-14 07:36 231 0 27.8
2020-Jul-14 07:30 195 0 27.8
2020-Jul-14 07:25 204 1 27.8
2020-Jul-14 07:20 224 2 27.8
2020-Jul-14 07:15 27.2
2020-Jul-14 07:10 27.8
2020-Jul-14 07:06 27.8
2020-Jul-14 07:00 27.8
2020-Jul-14 06:55 27.2
2020-Jul-14 06:50 27.2
2020-Jul-14 06:45 27.2
2020-Jul-14 06:40 27.2
2020-Jul-14 06:35 27.2
2020-Jul-14 06:30 27.2
2020-Jul-14 06:25 26.7
2020-Jul-14 06:20 26.7
2020-Jul-14 06:15
2020-Jul-14 06:10
2020-Jul-14 06:05
2020-Jul-14 06:00
2020-Jul-14 05:55
2020-Jul-14 05:50
2020-Jul-14 05:45
2020-Jul-14 05:40
2020-Jul-14 05:35
2020-Jul-14 05:30
2020-Jul-14 05:20
2020-Jul-14 05:15 087 25.6
2020-Jul-14 05:10 087 25.6
2020-Jul-14 05:05 087 25.6
2020-Jul-14 04:59 087 25.0
2020-Jul-14 04:54 087 25.0
2020-Jul-14 04:49 087 25.0
2020-Jul-14 04:44 087 25.0
2020-Jul-14 04:39 087 25.6
2020-Jul-14 04:34 087 25.6
2020-Jul-14 04:29 087 25.6
2020-Jul-14 04:24 087 25.6
2020-Jul-14 04:19 087 25.6
2020-Jul-14 04:14 087 25.6
2020-Jul-14 04:09 087 25.0
2020-Jul-14 04:04 087 25.0
2020-Jul-14 03:59 087 25.0
2020-Jul-14 03:54 087 25.0
2020-Jul-14 03:49 087 25.0
2020-Jul-14 03:44 087 25.6
2020-Jul-14 03:39 087 25.6
2020-Jul-14 03:34 087 25.6
2020-Jul-14 03:29 087 25.6
2020-Jul-14 03:24 087 26.1
2020-Jul-14 03:19 087 25.6
2020-Jul-14 03:14 087 25.6
2020-Jul-14 03:09 087 25.6
2020-Jul-14 03:04 087 25.6
2020-Jul-14 02:59 087 25.0
2020-Jul-14 02:54 087 25.6
2020-Jul-14 02:49 087 25.6
2020-Jul-14 02:44 087 25.6
2020-Jul-14 02:39 087 25.6
2020-Jul-14 02:34 087 25.6
2020-Jul-14 02:29 087 25.6
2020-Jul-14 02:23 087 25.6
2020-Jul-14 02:18 087 25.0
2020-Jul-14 02:13 087 25.6
2020-Jul-14 02:08 087 25.6
2020-Jul-14 02:03 087 25.0
2020-Jul-14 01:58 087 25.6
2020-Jul-14 01:53 087 25.0
2020-Jul-14 01:48 087 25.0
2020-Jul-14 01:43 087 25.6
2020-Jul-14 01:38 087 25.6
2020-Jul-14 01:33 087 25.6
2020-Jul-14 01:28 087 25.0
2020-Jul-14 01:23 087 25.0
2020-Jul-14 01:18 087 25.6
2020-Jul-14 01:13 087 25.0
2020-Jul-14 01:08 087 25.6
2020-Jul-14 01:03 087 25.0
2020-Jul-14 00:58 087 25.6
2020-Jul-14 00:53 087 25.0
2020-Jul-14 00:48 087 25.0
2020-Jul-14 00:43 087 24.4
2020-Jul-14 00:38 087 24.4
2020-Jul-14 00:33 087 24.4
2020-Jul-14 00:28 087 24.4
2020-Jul-14 00:23 087 25.0
2020-Jul-14 00:18 087 25.6
2020-Jul-14 00:13 087 25.6
2020-Jul-14 00:08 087 25.6
2020-Jul-14 00:03 087 25.6
2020-Jul-13 23:58 087 25.6
2020-Jul-13 23:52 087 26.1
2020-Jul-13 23:49 087 26.1
2020-Jul-13 23:37 087 26.1
2020-Jul-13 23:32 087 26.1
2020-Jul-13 23:27 087 26.1
2020-Jul-13 23:22 087 26.1
2020-Jul-13 23:17 087 26.1
2020-Jul-13 23:12 087 26.1
2020-Jul-13 23:07 087 26.1
2020-Jul-13 23:02 087 26.1
2020-Jul-13 22:57 087 26.1
2020-Jul-13 22:52 087 26.1
2020-Jul-13 22:47 087 26.1
2020-Jul-13 22:42 087 26.1
2020-Jul-13 22:37 087 26.1
2020-Jul-13 22:32 087 26.1
2020-Jul-13 22:27 087 26.1
2020-Jul-13 22:22 087 26.1
2020-Jul-13 22:17 087 26.1
2020-Jul-13 22:12 087 26.7
2020-Jul-13 22:07 087 26.1
2020-Jul-13 22:04 087 26.7
2020-Jul-13 21:57 087 26.7
2020-Jul-13 21:47 087 26.7
2020-Jul-13 21:42 087 26.7
2020-Jul-13 21:37 087 26.7
2020-Jul-13 21:32 087 26.7
2020-Jul-13 21:27 087 27.2
2020-Jul-13 21:21 087 26.7
2020-Jul-13 21:16 087 26.7
2020-Jul-13 21:11 087 27.2
2020-Jul-13 21:06 087 27.2
2020-Jul-13 21:01 087 27.2
2020-Jul-13 20:56 087 27.2
2020-Jul-13 20:51 087 27.2
2020-Jul-13 20:46 087 27.2
2020-Jul-13 20:41 087 27.2
2020-Jul-13 20:36 087 27.2
2020-Jul-13 20:31 087 27.2
2020-Jul-13 20:26 087 27.2
2020-Jul-13 20:21 087 27.2
2020-Jul-13 20:16 087 27.2
2020-Jul-13 20:11 087 27.2
2020-Jul-13 20:06 087 27.2
2020-Jul-13 20:01 087 27.2
2020-Jul-13 19:56 087 27.2
2020-Jul-13 19:51 087 27.8
2020-Jul-13 19:46 087 27.8
2020-Jul-13 19:41 087 27.2
2020-Jul-13 19:36 087 27.2
2020-Jul-13 19:31 087 27.8
2020-Jul-13 19:26 087 27.8
2020-Jul-13 19:21 087 27.8
2020-Jul-13 19:16 087 27.8
2020-Jul-13 19:11 087 27.2
2020-Jul-13 19:06 087 27.8
2020-Jul-13 19:01 087 27.8
2020-Jul-13 18:56 087 27.8
2020-Jul-13 18:51 087 27.8
2020-Jul-13 18:45 087 27.8
2020-Jul-13 18:40 087 27.8
2020-Jul-13 18:35 087 27.8
2020-Jul-13 18:30 087 27.8
2020-Jul-13 18:25 087 27.8
2020-Jul-13 18:20 087 28.3
2020-Jul-13 18:15 087 27.8
2020-Jul-13 18:10 087 28.3
2020-Jul-13 18:05 087 27.8
2020-Jul-13 18:00 090 28.3
2020-Jul-13 17:55 197 28.3
2020-Jul-13 17:45 197 28.3
2020-Jul-13 17:40 197 28.3
2020-Jul-13 17:35 197 28.9
2020-Jul-13 17:30 197 28.9
2020-Jul-13 17:25 197 29.4
2020-Jul-13 17:20 197 29.4
2020-Jul-13 17:15 197 30.0
2020-Jul-13 17:10 197 30.0
2020-Jul-13 17:05 180 0 30.0
2020-Jul-13 17:00 217 30.6
2020-Jul-13 16:55 205 30.6
2020-Jul-13 16:50 188 30.6
2020-Jul-13 16:45 188 30.6
2020-Jul-13 16:40 243 30.6
2020-Jul-13 16:35 207 30.6
2020-Jul-13 16:30 207 30.6
2020-Jul-13 16:25 207 30.6
2020-Jul-13 16:20 207 0 30.6
2020-Jul-13 16:14 176 30.6
2020-Jul-13 16:09 176 30.6
2020-Jul-13 16:04 176 0 30.6
2020-Jul-13 15:59 217 30.6
2020-Jul-13 15:54 228 30.6
2020-Jul-13 15:49 236 0 30.6
2020-Jul-13 15:44 235 30.6
2020-Jul-13 15:39 180 1 gusting 2 30.6
2020-Jul-13 15:34 243 30.6
2020-Jul-13 15:29 256 30.6
2020-Jul-13 15:24 211 30.6
2020-Jul-13 15:19 215 2 gusting 2 30.6
2020-Jul-13 15:14 180 31.1
2020-Jul-13 15:09 170 0 gusting 2 31.1
2020-Jul-13 15:04 214 31.1
2020-Jul-13 14:59 214 31.1
2020-Jul-13 14:54 194 0 31.1
2020-Jul-13 14:49 250 31.1
2020-Jul-13 14:44 174 31.1
2020-Jul-13 14:39 180 31.1
2020-Jul-13 14:34 180 0 31.1
2020-Jul-13 14:29 184 1 31.1
2020-Jul-13 14:24 228 31.1
2020-Jul-13 14:19 290 0 31.1
2020-Jul-13 14:14 250 2 gusting 3 31.1
2020-Jul-13 14:09 183 2 31.7
2020-Jul-13 14:04 198 31.7
2020-Jul-13 13:59 250 2 31.7
2020-Jul-13 13:54 245 0 31.7
2020-Jul-13 13:49 295 3 31.7
2020-Jul-13 13:44 233 1 gusting 2 31.7
2020-Jul-13 13:38 260 0 31.7
2020-Jul-13 13:33 207 0 31.7
2020-Jul-13 13:28 198 31.7
2020-Jul-13 13:23 226 31.7
2020-Jul-13 13:18 219 3 gusting 4 32.2
2020-Jul-13 13:13 239 0 32.2
2020-Jul-13 13:08 260 2 31.7
2020-Jul-13 13:03 233 4 gusting 7 31.7
2020-Jul-13 12:58 203 3 gusting 6 32.2
2020-Jul-13 12:53 172 1 32.8
2020-Jul-13 12:48 246 2 gusting 2 32.8
2020-Jul-13 12:43 257 32.8
2020-Jul-13 12:38 221 1 32.8
2020-Jul-13 12:33 124 32.2
2020-Jul-13 12:28 187 0 32.8
2020-Jul-13 12:23 218 1 32.8
2020-Jul-13 12:18 224 1 32.8
2020-Jul-13 12:13 201 1 32.8
2020-Jul-13 12:09 246 3 32.8
2020-Jul-13 12:03 221 32.8
2020-Jul-13 11:58 246 3 32.8
2020-Jul-13 11:53 242 0 gusting 4 32.2
2020-Jul-13 11:48 248 0 32.2
2020-Jul-13 11:43 188 0 32.8
2020-Jul-13 11:38 226 3 gusting 2 32.2
2020-Jul-13 11:33 187 1 31.7
2020-Jul-13 11:28 248 0 32.2
2020-Jul-13 11:23 211 4 gusting 6 31.7
2020-Jul-13 11:18 215 6 32.8
2020-Jul-13 11:13 255 31.7
2020-Jul-13 11:08 204 3 31.7
2020-Jul-13 11:02 263 4 gusting 3 31.7
2020-Jul-13 10:57 274 31.7
2020-Jul-13 10:52 246 2 gusting 6 31.7
2020-Jul-13 10:47 231 0 31.7
2020-Jul-13 10:42 236 4 gusting 5 31.7
2020-Jul-13 10:37 257 0 31.7
2020-Jul-13 10:32 210 0 31.7
2020-Jul-13 10:27 245 5 31.1
2020-Jul-13 10:22 240 0 gusting 4 31.1
2020-Jul-13 10:17 225 0 gusting 6 31.7
2020-Jul-13 10:12 269 31.1
2020-Jul-13 10:07 201 31.7
2020-Jul-13 10:02 221 3 gusting 6 31.1
2020-Jul-13 09:57 226 4 gusting 3 31.1
2020-Jul-13 09:52 232 4 31.1
2020-Jul-13 09:47 214 30.6
2020-Jul-13 09:42 217 30.6
2020-Jul-13 09:37 229 30.6
2020-Jul-13 09:32 193 30.0
2020-Jul-13 09:27 193 0 30.6
2020-Jul-13 09:22 224 30.0
2020-Jul-13 09:17 198 30.0
2020-Jul-13 09:12 198 30.0
2020-Jul-13 09:07 214 30.0
2020-Jul-13 09:02 214 30.0
2020-Jul-13 08:57 214 29.4
2020-Jul-13 08:52 214 29.4
2020-Jul-13 08:47 214 30.0
2020-Jul-13 08:42 225 29.4
2020-Jul-13 08:37 214 28.9
2020-Jul-13 08:31 214 28.9
2020-Jul-13 08:26 214 29.4
2020-Jul-13 08:21 214 29.4
2020-Jul-13 08:16 214 29.4
2020-Jul-13 08:11 225 28.9
2020-Jul-13 08:06 225 28.9
2020-Jul-13 08:01 077 28.9